Miscellaneous Local Product
Issued by NWS North Platte, NE

Home | Current Version | Previous Version | Text Only | Print | Product List | Glossary On
Versions: 1 2 3 4 5 6 7 8 9 10 11 12 13 14 15 16 17 18 19 20 21 22 23 24 25 26 27 28 29 30 31 32 33 34 35 36 37 38 39 40 41 42 43 44 45 46 47 48 49 50
000
AXUS43 KLBF 191110
MISLBF


WESTERN AND NORTH CENTRAL NEBRASKA HOURLY WEATHER ROUNDUP
NATIONAL WEATHER SERVICE NORTH PLATTE NE
600 AM CDT SAT AUG 19 2017

NOTE: "FAIR" INDICATES FEW OR NO CLOUDS BELOW 12,000 FEET WITH NO
SIGNIFICANT WEATHER AND/OR OBSTRUCTIONS TO VISIBILITY.

NOTE: STATIONS NOT REPORTING VARIABLES SUCH AS SKY/WEATHER OR
PRESSURE ARE PROVIDED BY RAWS AND APRS NETWORKS AND ARE NOT UNDER
NATIONAL WEATHER SERVICE QUALITY CONTROL.

...OBSERVATIONS IN AND NEAR THE EASTERN PANHANDLE OF NEBRASKA...

CITY           SKY/WX    TMP DP  RH WIND       PRES   REMARKS
PINE RIDGE     CLEAR     65  51  60 SW12      29.92S
GORDON         FAIR      61  52  73 S5        29.96S
CHADRON        CLEAR     64  48  56 VRB3      29.92S
ALLIANCE       CLEAR     57  50  77 SE3       29.99S
SIDNEY         CLEAR     64  55  72 S15       30.03F
CRESCENT LAKE    N/A     60  54  80 S6          N/A
$$

...OBSERVATIONS IN NORTHERN NEBRASKA AND FAR SOUTHERN SOUTH DAKOTA...

CITY           SKY/WX    TMP DP  RH WIND       PRES   REMARKS
WINNER         FAIR      63  56  78 S7        29.93F
VALENTINE      CLEAR     63  55  75 S8        29.96F
THEDFORD       CLEAR     62  56  82 S6        30.00S
AINSWORTH      CLEAR     60  57  88 S9        29.97F
O`NEILL        CLEAR     57  57 100 S3        29.98S
ORD            CLEAR     56  54  93 S3        29.98S
BROKEN BOW     CLEAR     56  54  93 CALM      29.99F
VALENTINE NWR    N/A     54  53  96 CALM        N/A
HALSEY           N/A     63  55  75 SE6         N/A
BUTTE            N/A     59  55  87 S3          N/A
CHAMBERS         N/A     56  55  95 CALM        N/A
EWING            N/A     54  53  95 CALM        N/A
$$

...OBSERVATIONS IN SOUTHWEST NEBRASKA AND FAR NORTHEAST COLORADO...

CITY           SKY/WX    TMP DP  RH WIND       PRES   REMARKS
HOLYOKE        FAIR      59  54  82 S7        30.03F
IMPERIAL       CLEAR     57  52  83 S6        30.02F
OGALLALA       CLEAR     63  56  79 W7        30.01F
NORTH PLATTE   CLEAR     56  55  97 E3        30.01S
MCCOOK         CLEAR     56  54  93 CALM      30.01R
LEXINGTON      CLEAR     60  58  94 SE3       30.00S
STAPLETON        N/A     59  55  85 CALM        N/A
GOTHENBURG       N/A     60  55  84 CALM        N/A
CALLAWAY         N/A     59  57  94 SE6         N/A
$$

...OBSERVATIONS IN CENTRAL LINCOLN COUNTY AREA...

CITY           SKY/WX    TMP DP  RH WIND       PRES   REMARKS
N.P. AIRPORT   CLEAR     56  55  97 E3        30.01S
N.P. DOWNTOWN    N/A     61  58  88 CALM        N/A
N.P. SOUTHEAST   N/A     60  57  90 CALM        N/A
N.P. HILLCREST   N/A     61  58  88 E5          N/A
$$

...SOME OBSERVATIONS FROM AROUND THE REGION...

CITY           SKY/WX    TMP DP  RH WIND       PRES   REMARKS
DENVER         CLEAR     65  46  50 SW10      30.10S
LIMON          PTCLDY    51  51 100 CALM      30.15F
ASPEN          CLOUDY    50  34  54 S6        30.33S
LARAMIE        CLOUDY    48  35  60 S8        30.22F
CASPER         CLEAR     53  37  54 W9        30.05S
CHEYENNE       CLEAR     56  42  59 W10       30.14F
SCOTTSBLUFF    CLEAR     60  51  72 CALM      29.98F
GRAND ISLAND   CLEAR     59  59 100 CALM      30.00S
OMAHA          CLEAR     60  56  86 N3        29.96R
SIOUX FALLS    PTCLDY    55  55 100 SW3       29.97R
PIERRE         CLEAR     59  54  83 SE9       29.88F
RAPID CITY     CLEAR     55  49  80 SE8       29.89F
BISMARCK       CLEAR     58  56  93 E6        29.86F
KANSAS CITY    CLEAR     69  66  90 N3        29.94R
HILL CITY      CLEAR     59  57  93 CALM      29.99F
WICHITA        PTCLDY    72  69  90 SE5       29.96R
DODGE CITY     CLEAR     66  63  90 SW5       30.01F
OKLAHOMA CITY  CLEAR     72  71  97 S6        29.98S
DALLAS         CLEAR     79  73  82 S8        29.96R
AMARILLO       CLEAR     68  63  84 S10       30.10R
$$




USA.gov is the U.S. government's official web portal to all federal, state and local government web resources and services.